| time (UTC) | temp F | wind direction | speed MPH | gust MPH | rain 1hr in | rain 24hr in | rain mn in | humidity % | barometer mb |
| 20260509034540 | 46 | 0 | 0.0 | 0.0 | 0.00 | 0.00 | 0.00 | 78 | 1017.7 |
| 20260509033040 | 46 | 0 | 0.0 | 0.0 | 0.00 | 0.00 | 0.00 | 78 | 1017.7 |
| 20260509031546 | 46 | 0 | 0.0 | 0.0 | 0.00 | 0.00 | 0.00 | 79 | 1017.7 |
| 20260509030044 | 46 | 0 | 0.0 | 0.0 | 0.00 | 0.00 | 0.00 | 79 | 1017.8 |
| 20260509024541 | 46 | 0 | 0.0 | 0.0 | 0.00 | 0.00 | 0.00 | 77 | 1017.9 |
| 20260509023042 | 46 | 0 | 0.0 | 0.0 | 0.00 | 0.00 | 0.00 | 78 | 1017.9 |
| 20260509021540 | 46 | 0 | 0.0 | 0.0 | 0.00 | 0.00 | 0.00 | 78 | 1017.9 |
| 20260509020038 | 46 | 0 | 0.0 | 0.0 | 0.00 | 0.00 | 0.00 | 77 | 1017.7 |
| 20260509014542 | 47 | 0 | 0.0 | 0.0 | 0.00 | 0.00 | 0.00 | 77 | 1017.6 |
| 20260509013048 | 47 | 0 | 0.0 | 0.0 | 0.00 | 0.00 | 0.00 | 77 | 1017.6 |
| 20260509011540 | 47 | 0 | 0.0 | 0.0 | 0.00 | 0.00 | 0.00 | 76 | 1017.6 |
| 20260509010042 | 47 | 0 | 0.0 | 0.0 | 0.00 | 0.00 | 0.00 | 77 | 1017.6 |
| 20260509004601 | 47 | 0 | 0.0 | 0.0 | 0.00 | 0.00 | 0.00 | 76 | 1017.6 |
| 20260509003042 | 48 | 0 | 0.0 | 0.0 | 0.00 | 0.00 | 0.00 | 75 | 1017.7 |
| 20260509001542 | 48 | 0 | 0.0 | 0.0 | 0.00 | 0.00 | 0.00 | 75 | 1017.7 |
| 20260509000041 | 49 | 0 | 0.0 | 0.0 | 0.00 | 0.00 | 0.00 | 75 | 1017.9 |
| 20260508234539 | 50 | 0 | 0.0 | 0.0 | 0.00 | 0.00 | 0.00 | 74 | 1017.8 |
| 20260508233038 | 50 | 0 | 0.0 | 0.0 | 0.00 | 0.00 | 0.00 | 74 | 1017.8 |
| 20260508231541 | 50 | 0 | 0.0 | 0.0 | 0.00 | 0.00 | 0.00 | 73 | 1018.0 |
| 20260508230053 | 51 | 0 | 0.0 | 0.0 | 0.00 | 0.00 | 0.00 | 73 | 1018.0 |
| 20260508224541 | 51 | 0 | 0.0 | 0.0 | 0.00 | 0.00 | 0.00 | 72 | 1018.0 |
| 20260508223040 | 52 | 0 | 0.0 | 0.0 | 0.00 | 0.00 | 0.00 | 72 | 1018.0 |
| 20260508221540 | 53 | 0 | 0.0 | 0.0 | 0.00 | 0.00 | 0.00 | 71 | 1017.9 |
| 20260508220050 | 53 | 0 | 0.0 | 0.0 | 0.00 | 0.00 | 0.00 | 70 | 1017.8 |
| 20260508214547 | 54 | 0 | 0.0 | 0.0 | 0.00 | 0.00 | 0.00 | 69 | 1017.8 |
| 20260508213040 | 54 | 0 | 0.0 | 0.0 | 0.00 | 0.00 | 0.00 | 68 | 1017.5 |
| 20260508211543 | 55 | 0 | 0.0 | 0.0 | 0.00 | 0.00 | 0.00 | 68 | 1017.5 |
| 20260508210057 | 55 | 0 | 0.0 | 0.0 | 0.00 | 0.00 | 0.00 | 67 | 1017.4 |
| 20260508204539 | 55 | 0 | 0.0 | 0.0 | 0.00 | 0.00 | 0.00 | 67 | 1017.3 |
| 20260508203040 | 55 | 0 | 0.0 | 0.0 | 0.00 | 0.00 | 0.00 | 67 | 1017.2 |
| 20260508201544 | 55 | 0 | 0.0 | 0.0 | 0.00 | 0.00 | 0.00 | 66 | 1017.0 |
| 20260508200047 | 55 | 0 | 0.0 | 0.0 | 0.00 | 0.00 | 0.00 | 66 | 1016.8 |
| 20260508194546 | 56 | 0 | 0.0 | 0.0 | 0.00 | 0.00 | 0.00 | 65 | 1016.6 |
| 20260508193045 | 56 | 0 | 0.0 | 0.0 | 0.00 | 0.00 | 0.00 | 64 | 1016.3 |
| 20260508191538 | 57 | 0 | 0.0 | 0.0 | 0.00 | 0.00 | 0.00 | 62 | 1016.0 |
| 20260508190053 | 58 | 0 | 0.0 | 0.0 | 0.00 | 0.00 | 0.00 | 60 | 1015.8 |
| 20260508184556 | 59 | 0 | 0.0 | 0.0 | 0.00 | 0.07 | 0.00 | 58 | 1015.4 |
| 20260508183040 | 60 | 0 | 0.0 | 0.0 | 0.00 | 0.07 | 0.00 | 58 | 1015.1 |
| 20260508181558 | 60 | 0 | 0.0 | 0.0 | 0.00 | 0.07 | 0.00 | 57 | 1014.8 |
| 20260508180039 | 60 | 0 | 0.0 | 0.0 | 0.00 | 0.07 | 0.00 | 56 | 1014.7 |
| 20260508174546 | 61 | 0 | 0.0 | 0.0 | 0.00 | 0.07 | 0.00 | 54 | 1014.3 |
| 20260508173046 | 62 | 0 | 0.0 | 0.0 | 0.00 | 0.07 | 0.00 | 54 | 1014.2 |
| 20260508171541 | 63 | 0 | 0.0 | 0.0 | 0.00 | 0.07 | 0.00 | 52 | 1014.1 |
| 20260508170042 | 63 | 0 | 0.0 | 0.0 | 0.00 | 0.07 | 0.00 | 50 | 1014.2 |
| 20260508164558 | 64 | 0 | 0.0 | 0.0 | 0.00 | 0.07 | 0.00 | 48 | 1014.2 |
| 20260508163039 | 64 | 0 | 0.0 | 0.0 | 0.00 | 0.07 | 0.00 | 46 | 1014.1 |
| 20260508161549 | 64 | 0 | 0.0 | 0.0 | 0.00 | 0.07 | 0.00 | 45 | 1014.0 |
| 20260508160043 | 64 | 0 | 0.0 | 0.0 | 0.00 | 0.07 | 0.00 | 44 | 1014.1 |
| 20260508154543 | 64 | 0 | 0.0 | 0.0 | 0.00 | 0.07 | 0.00 | 43 | 1014.0 |
| 20260508153041 | 64 | 0 | 0.0 | 0.0 | 0.00 | 0.07 | 0.00 | 42 | 1014.1 |
| 20260508151541 | 64 | 0 | 0.0 | 0.0 | 0.00 | 0.07 | 0.00 | 41 | 1014.2 |
| 20260508150040 | 65 | 0 | 0.0 | 0.0 | 0.00 | 0.07 | 0.00 | 41 | 1014.1 |
| 20260508144546 | 64 | 0 | 0.0 | 0.0 | 0.00 | 0.07 | 0.00 | 40 | 1014.2 |
| 20260508143040 | 64 | 0 | 0.0 | 0.0 | 0.00 | 0.07 | 0.00 | 39 | 1014.3 |
| 20260508141551 | 65 | 0 | 0.0 | 0.0 | 0.00 | 0.07 | 0.00 | 38 | 1014.3 |
| 20260508140048 | 65 | 0 | 0.0 | 0.0 | 0.00 | 0.07 | 0.00 | 36 | 1014.3 |
| 20260508134544 | 65 | 0 | 0.0 | 0.0 | 0.00 | 0.07 | 0.00 | 34 | 1014.3 |
| 20260508133108 | 66 | 0 | 0.0 | 0.0 | 0.00 | 0.07 | 0.00 | 35 | 1014.6 |
| 20260508131542 | 66 | 0 | 0.0 | 0.0 | 0.00 | 0.07 | 0.00 | 36 | 1014.8 |
| 20260508130037 | 64 | 0 | 0.0 | 0.0 | 0.00 | 0.07 | 0.00 | 36 | 1014.9 |
| 20260508124540 | 64 | 0 | 0.0 | 0.0 | 0.00 | 0.07 | 0.00 | 36 | 1015.1 |
| 20260508123055 | 64 | 0 | 0.0 | 0.0 | 0.00 | 0.07 | 0.00 | 37 | 1015.1 |
| 20260508121540 | 63 | 0 | 0.0 | 0.0 | 0.00 | 0.07 | 0.00 | 36 | 1015.2 |
| 20260508120040 | 63 | 0 | 0.0 | 0.0 | 0.00 | 0.07 | 0.00 | 36 | 1015.2 |
| 20260508114538 | 62 | 0 | 0.0 | 0.0 | 0.00 | 0.07 | 0.00 | 38 | 1015.1 |
| 20260508113059 | 62 | 0 | 0.0 | 0.0 | 0.00 | 0.07 | 0.00 | 38 | 1015.2 |
| 20260508111544 | 62 | 0 | 0.0 | 0.0 | 0.00 | 0.07 | 0.00 | 45 | 1015.2 |
| 20260508110050 | 61 | 0 | 0.0 | 0.0 | 0.00 | 0.07 | 0.00 | 57 | 1015.3 |
| 20260508104541 | 60 | 0 | 0.0 | 0.0 | 0.00 | 0.07 | 0.00 | 60 | 1015.6 |
| 20260508103047 | 58 | 0 | 0.0 | 0.0 | 0.00 | 0.07 | 0.00 | 62 | 1015.8 |
| 20260508101537 | 58 | 0 | 0.0 | 0.0 | 0.00 | 0.07 | 0.00 | 61 | 1015.8 |
| 20260508100043 | 58 | 0 | 0.0 | 0.0 | 0.00 | 0.07 | 0.00 | 63 | 1015.8 |
| 20260508094541 | 57 | 0 | 0.0 | 0.0 | 0.00 | 0.07 | 0.00 | 66 | 1015.7 |
| 20260508093041 | 57 | 0 | 0.0 | 0.0 | 0.00 | 0.07 | 0.00 | 68 | 1015.8 |
| 20260508091551 | 55 | 0 | 0.0 | 0.0 | 0.00 | 0.07 | 0.00 | 71 | 1015.9 |
| 20260508090057 | 54 | 0 | 0.0 | 0.0 | 0.00 | 0.07 | 0.00 | 72 | 1016.1 |
| 20260508084542 | 53 | 0 | 0.0 | 0.0 | 0.00 | 0.07 | 0.00 | 75 | 1016.2 |
| 20260508083043 | 52 | 0 | 0.0 | 0.0 | 0.00 | 0.07 | 0.00 | 76 | 1016.3 |
| 20260508081541 | 51 | 0 | 0.0 | 0.0 | 0.00 | 0.07 | 0.00 | 78 | 1016.4 |
| 20260508080040 | 51 | 0 | 0.0 | 0.0 | 0.00 | 0.07 | 0.00 | 78 | 1016.5 |
| 20260508074544 | 50 | 0 | 0.0 | 0.0 | 0.00 | 0.07 | 0.00 | 80 | 1016.7 |
| 20260508073040 | 50 | 0 | 0.0 | 0.0 | 0.00 | 0.07 | 0.00 | 80 | 1016.6 |
| 20260508071547 | 49 | 0 | 0.0 | 0.0 | 0.00 | 0.07 | 0.00 | 80 | 1016.8 |
| 20260508070044 | 48 | 0 | 0.0 | 0.0 | 0.00 | 0.07 | 0.00 | 83 | 1016.9 |
| 20260508064543 | 47 | 0 | 0.0 | 0.0 | 0.00 | 0.07 | 0.00 | 87 | 1017.1 |
| 20260508063041 | 46 | 0 | 0.0 | 0.0 | 0.00 | 0.07 | 0.00 | 92 | 1017.0 |
| 20260508061540 | 44 | 0 | 0.0 | 0.0 | 0.00 | 0.07 | 0.00 | 93 | 1017.0 |
| 20260508060040 | 42 | 0 | 0.0 | 0.0 | 0.00 | 0.07 | 0.00 | 92 | 1016.8 |
| 20260508054537 | 42 | 0 | 0.0 | 0.0 | 0.00 | 0.07 | 0.00 | 92 | 1016.7 |
| 20260508053109 | 42 | 0 | 0.0 | 0.0 | 0.00 | 0.07 | 0.00 | 92 | 1016.6 |
| 20260508051545 | 41 | 0 | 0.0 | 0.0 | 0.00 | 0.07 | 0.00 | 92 | 1016.7 |
| 20260508050042 | 41 | 0 | 0.0 | 0.0 | 0.00 | 0.07 | 0.00 | 92 | 1016.6 |
| 20260508044540 | 41 | 0 | 0.0 | 0.0 | 0.00 | 0.07 | 0.00 | 92 | 1016.6 |
| 20260508043040 | 42 | 0 | 0.0 | 0.0 | 0.00 | 0.07 | 0.00 | 92 | 1016.4 |
| 20260508041610 | 42 | 0 | 0.0 | 0.0 | 0.00 | 0.07 | 0.00 | 92 | 1016.4 |
| 20260508040104 | 43 | 0 | 0.0 | 0.0 | 0.00 | 0.07 | 0.00 | 92 | 1016.3 |